�������l�o���
Date,Time,MP-1(��Sv/h),MP-2(��Sv/h),MP-3(��Sv/h),MP-4(��Sv/h),MP-5(��Sv/h),MP-6(��Sv/h),MP-7(��Sv/h),MP-8(��Sv/h),����,����(m/s),���J
2023/01/07,00:00,0.569,0.823,0.517,1.056,0.726,0.323,0.586,0.557,���k��,1.4,��
2023/01/07,00:10,0.569,0.825,0.517,1.057,0.727,0.323,0.585,0.557,��,1.0,��
2023/01/07,00:20,0.570,0.824,0.515,1.059,0.727,0.322,0.586,0.556,���k��,1.1,��
2023/01/07,00:30,0.570,0.824,0.516,1.056,0.728,0.324,0.586,0.557,�k��,1.1,��
2023/01/07,00:40,0.569,0.825,0.517,1.057,0.728,0.324,0.586,0.556,�k��,1.4,��
2023/01/07,00:50,0.570,0.824,0.515,1.055,0.728,0.324,0.585,0.557,���k��,1.9,��
2023/01/07,01:00,0.570,0.825,0.516,1.057,0.726,0.324,0.585,0.557,���k��,2.1,��
2023/01/07,01:10,0.569,0.825,0.516,1.057,0.729,0.323,0.586,0.556,��,2.6,��
2023/01/07,01:20,0.570,0.826,0.516,1.056,0.728,0.324,0.586,0.557,���k��,2.3,��
2023/01/07,01:30,0.570,0.824,0.515,1.054,0.730,0.323,0.585,0.558,��,2.1,��
2023/01/07,01:40,0.568,0.824,0.515,1.058,0.727,0.324,0.585,0.557,���k��,1.1,��
2023/01/07,01:50,0.569,0.826,0.517,1.056,0.728,0.324,0.586,0.556,�k��,1.5,��
2023/01/07,02:00,0.571,0.826,0.516,1.057,0.729,0.324,0.585,0.556,�k��,1.9,��
2023/01/07,02:10,0.568,0.824,0.514,1.055,0.727,0.324,0.585,0.557,�k��,2.2,��
2023/01/07,02:20,0.572,0.822,0.515,1.058,0.728,0.325,0.586,0.558,�k��,2.4,��
2023/01/07,02:30,0.570,0.824,0.517,1.056,0.728,0.325,0.586,0.557,���k��,3.5,��
2023/01/07,02:40,0.570,0.823,0.517,1.057,0.725,0.324,0.586,0.556,���k��,2.7,��
2023/01/07,02:50,0.570,0.823,0.518,1.057,0.728,0.323,0.585,0.557,��,2.0,��
2023/01/07,03:00,0.570,0.825,0.515,1.054,0.727,0.325,0.585,0.557,���쐼,1.3,��
2023/01/07,03:10,0.570,0.824,0.516,1.055,0.727,0.326,0.585,0.557,��,1.0,��
2023/01/07,03:20,0.568,0.825,0.515,1.056,0.727,0.323,0.585,0.557,��,1.2,��
2023/01/07,03:30,0.570,0.823,0.516,1.055,0.728,0.325,0.585,0.557,���쐼,1.8,��
2023/01/07,03:40,0.570,0.825,0.516,1.055,0.726,0.324,0.585,0.558,��,1.6,��
2023/01/07,03:50,0.570,0.824,0.515,1.057,0.728,0.323,0.585,0.558,���k��,1.4,��
2023/01/07,04:00,0.570,0.825,0.517,1.057,0.729,0.324,0.586,0.557,���쐼,1.4,��
2023/01/07,04:10,0.569,0.824,0.516,1.056,0.729,0.323,0.585,0.559,��,1.1,��
2023/01/07,04:20,0.569,0.824,0.516,1.055,0.728,0.324,0.586,0.558,���k��,1.3,��
2023/01/07,04:30,0.567,0.824,0.516,1.056,0.727,0.324,0.586,0.557,�k��,1.8,��
2023/01/07,04:40,0.569,0.824,0.516,1.056,0.727,0.324,0.585,0.557,�k�k��,2.2,��
2023/01/07,04:50,0.569,0.824,0.516,1.056,0.726,0.323,0.586,0.557,�k��,2.0,��
2023/01/07,05:00,0.569,0.824,0.518,1.056,0.728,0.324,0.585,0.558,�k��,1.6,��
2023/01/07,05:10,0.570,0.824,0.516,1.057,0.727,0.325,0.586,0.557,�k��,1.8,��
2023/01/07,05:20,0.570,0.826,0.516,1.058,0.726,0.323,0.587,0.559,�k��,2.5,��
2023/01/07,05:30,0.569,0.824,0.514,1.057,0.726,0.324,0.586,0.557,�k��,3.1,��
2023/01/07,05:40,0.568,0.823,0.517,1.056,0.726,0.323,0.585,0.557,�k��,3.0,��
2023/01/07,05:50,0.569,0.824,0.517,1.057,0.726,0.323,0.584,0.557,�k��,3.2,��
2023/01/07,06:00,0.570,0.823,0.516,1.056,0.727,0.324,0.587,0.557,�k��,2.8,��
2023/01/07,06:10,0.569,0.824,0.516,1.056,0.727,0.324,0.586,0.557,�k��,3.0,��
2023/01/07,06:20,0.569,0.823,0.517,1.056,0.725,0.325,0.585,0.556,�k��,3.2,��
2023/01/07,06:30,0.568,0.824,0.516,1.056,0.727,0.323,0.584,0.559,�k��,3.8,��
2023/01/07,06:40,0.568,0.821,0.515,1.059,0.727,0.324,0.585,0.557,�k�k��,4.4,��
2023/01/07,06:50,0.570,0.824,0.514,1.056,0.728,0.324,0.585,0.557,�k�k��,4.7,��
2023/01/07,07:00,0.569,0.824,0.517,1.056,0.728,0.325,0.586,0.557,�k�k��,5.2,��
2023/01/07,07:10,0.570,0.825,0.514,1.057,0.727,0.324,0.586,0.558,�k��,5.8,��
2023/01/07,07:20,0.568,0.826,0.515,1.057,0.728,0.324,0.586,0.558,�k��,5.3,��
2023/01/07,07:30,0.570,0.825,0.515,1.056,0.727,0.322,0.585,0.558,�k��,4.4,��
2023/01/07,07:40,0.569,0.824,0.518,1.056,0.727,0.324,0.586,0.557,�k��,4.6,��
2023/01/07,07:50,0.569,0.823,0.514,1.056,0.728,0.324,0.586,0.558,�k��,3.9,��
2023/01/07,08:00,0.568,0.822,0.516,1.056,0.727,0.324,0.586,0.557,�k��,3.9,��
2023/01/07,08:10,0.570,0.825,0.516,1.056,0.724,0.325,0.586,0.557,�k��,3.9,��
2023/01/07,08:20,0.568,0.823,0.515,1.056,0.728,0.323,0.586,0.557,�k��,3.9,��
2023/01/07,08:30,0.569,0.824,0.516,1.056,0.727,0.324,0.586,0.557,�k��,3.8,��
2023/01/07,08:40,0.570,0.822,0.515,1.057,0.728,0.326,0.588,0.558,���k��,4.4,��
2023/01/07,08:50,0.572,0.822,0.516,1.058,0.727,0.324,0.588,0.557,�k��,3.9,��
2023/01/07,09:00,0.571,0.824,0.517,1.060,0.729,0.325,0.589,0.558,�k��,3.8,��
2023/01/07,09:10,0.570,0.824,0.519,1.055,0.726,0.323,0.588,0.558,���k��,3.2,��
2023/01/07,09:20,0.572,0.823,0.518,1.056,0.729,0.325,0.587,0.556,���k��,2.8,��
2023/01/07,09:30,0.571,0.825,0.517,1.057,0.728,0.324,0.589,0.556,�k��,3.6,��
2023/01/07,09:40,0.573,0.825,0.517,1.057,0.729,0.325,0.587,0.558,�k��,2.3,��
2023/01/07,09:50,0.572,0.825,0.517,1.056,0.728,0.325,0.586,0.558,�k�k��,2.8,��
2023/01/07,10:00,0.571,0.825,0.516,1.058,0.728,0.325,0.587,0.557,�k��,3.0,��
2023/01/07,10:10,0.572,0.827,0.517,1.057,0.729,0.324,0.586,0.559,�k��,3.0,��
2023/01/07,10:20,0.572,0.826,0.516,1.057,0.729,0.324,0.587,0.558,�k��,2.6,��
2023/01/07,10:30,0.571,0.826,0.516,1.058,0.730,0.324,0.587,0.558,�k�k��,2.5,��
2023/01/07,10:40,0.572,0.825,0.515,1.058,0.729,0.325,0.587,0.560,�k,1.6,��
2023/01/07,10:50,0.573,0.825,0.517,1.058,0.729,0.327,0.587,0.557,�k�k��,1.6,��
2023/01/07,11:00,0.572,0.826,0.518,1.060,0.730,0.325,0.587,0.559,�k�k��,1.5,��
2023/01/07,11:10,0.571,0.826,0.518,1.056,0.729,0.326,0.587,0.558,�k,1.4,��
2023/01/07,11:20,0.571,0.827,0.516,1.059,0.728,0.325,0.587,0.558,�k��,1.1,��
2023/01/07,11:30,0.573,0.827,0.512,1.057,0.728,0.326,0.588,0.558,���k��,1.0,��
2023/01/07,11:40,0.574,0.826,0.514,1.057,0.726,0.325,0.588,0.558,�k��,1.7,��
2023/01/07,11:50,0.572,0.828,0.517,1.058,0.729,0.326,0.588,0.558,�k�k��,1.9,��
2023/01/07,12:00,0.572,0.827,0.519,1.059,0.730,0.325,0.587,0.559,�k��,2.5,��
2023/01/07,12:10,0.572,0.825,0.517,1.057,0.729,0.325,0.588,0.557,�k�k��,2.5,��
2023/01/07,12:20,0.573,0.828,0.516,1.057,0.730,0.326,0.586,0.558,�k��,2.2,��
2023/01/07,12:30,0.573,0.825,0.512,1.059,0.730,0.325,0.588,0.559,�k��,2.7,��
2023/01/07,12:40,0.573,0.827,0.516,1.059,0.729,0.325,0.588,0.559,�k�k��,3.1,��
2023/01/07,12:50,0.573,0.822,0.517,1.058,0.730,0.325,0.586,0.559,�k��,2.4,��
2023/01/07,13:00,0.571,0.824,0.519,1.058,0.731,0.326,0.588,0.558,�k��,2.3,��
2023/01/07,13:10,0.573,0.824,0.519,1.060,0.730,0.326,0.587,0.558,�k,1.5,��
2023/01/07,13:20,0.574,0.823,0.520,1.057,0.728,0.326,0.589,0.556,��,1.3,��
2023/01/07,13:30,0.573,0.825,0.518,1.057,0.731,0.327,0.588,0.557,���k��,1.2,��
2023/01/07,13:40,0.575,0.825,0.518,1.055,0.732,0.327,0.588,0.556,�k��,2.2,��
2023/01/07,13:50,0.574,0.824,0.519,1.060,0.731,0.327,0.589,0.557,�k�k��,2.7,��
2023/01/07,14:00,0.574,0.825,0.519,1.057,0.732,0.327,0.587,0.560,�k,2.6,��
2023/01/07,14:10,0.573,0.825,0.519,1.060,0.730,0.325,0.588,0.559,�k�k��,2.4,��
2023/01/07,14:20,0.574,0.827,0.520,1.058,0.729,0.326,0.588,0.559,�k��,2.6,��
2023/01/07,14:30,0.573,0.826,0.519,1.058,0.729,0.326,0.589,0.557,�k��,2.3,��
2023/01/07,14:40,0.573,0.827,0.520,1.055,0.732,0.326,0.588,0.560,�k��,2.1,��
2023/01/07,14:50,0.573,0.828,0.519,1.058,0.728,0.325,0.588,0.559,���k��,1.9,��
2023/01/07,15:00,0.574,0.827,0.518,1.058,0.729,0.327,0.589,0.559,�k��,1.5,��
2023/01/07,15:10,0.571,0.827,0.519,1.061,0.731,0.326,0.588,0.560,�k,1.5,��
2023/01/07,15:20,0.572,0.826,0.519,1.058,0.730,0.326,0.589,0.561,�k,1.2,��
2023/01/07,15:30,0.573,0.827,0.518,1.059,0.731,0.325,0.590,0.558,�k��,1.4,��
2023/01/07,15:40,0.574,0.826,0.518,1.062,0.731,0.326,0.589,0.559,�k�k��,0.7,��
2023/01/07,15:50,0.573,0.827,0.519,1.058,0.732,0.326,0.589,0.559,�k,1.4,��
2023/01/07,16:00,0.572,0.824,0.517,1.058,0.731,0.326,0.590,0.559,�k,0.8,��
2023/01/07,16:10,0.572,0.827,0.518,1.057,0.731,0.326,0.589,0.557,�k,1.1,��
2023/01/07,16:20,0.572,0.825,0.518,1.058,0.729,0.326,0.589,0.558,�k,1.4,��
2023/01/07,16:30,0.573,0.826,0.519,1.058,0.728,0.326,0.588,0.559,�k�k��,1.0,��
2023/01/07,16:40,0.573,0.825,0.518,1.058,0.730,0.326,0.589,0.558,�k�k��,1.6,��
2023/01/07,16:50,0.573,0.824,0.517,1.057,0.730,0.325,0.587,0.557,�k��,1.8,��
2023/01/07,17:00,0.571,0.828,0.519,1.059,0.731,0.327,0.588,0.557,�k��,1.7,��
2023/01/07,17:10,0.572,0.826,0.517,1.056,0.731,0.326,0.588,0.558,�k��,2.4,��
2023/01/07,17:20,0.570,0.826,0.517,1.058,0.729,0.325,0.587,0.558,���k��,2.0,��
2023/01/07,17:30,0.572,0.825,0.519,1.059,0.732,0.324,0.588,0.558,���k��,3.0,��
2023/01/07,17:40,0.569,0.825,0.519,1.058,0.729,0.324,0.588,0.556,�k��,2.8,��
2023/01/07,17:50,0.570,0.826,0.517,1.057,0.728,0.324,0.587,0.560,�k��,2.4,��
2023/01/07,18:00,0.572,0.825,0.518,1.059,0.729,0.325,0.588,0.558,�k��,3.1,��
2023/01/07,18:10,0.571,0.826,0.517,1.057,0.729,0.325,0.586,0.558,�k��,2.8,��
2023/01/07,18:20,0.570,0.826,0.518,1.058,0.730,0.324,0.587,0.558,�k��,2.7,��
2023/01/07,18:30,0.570,0.827,0.517,1.059,0.729,0.326,0.587,0.556,���k��,2.6,��
2023/01/07,18:40,0.572,0.826,0.519,1.058,0.731,0.326,0.585,0.557,�k��,2.5,��
2023/01/07,18:50,0.571,0.825,0.517,1.058,0.731,0.325,0.588,0.557,���k��,2.7,��
2023/01/07,19:00,0.570,0.825,0.518,1.058,0.728,0.326,0.586,0.557,���k��,2.3,��
2023/01/07,19:10,0.571,0.825,0.518,1.058,0.728,0.325,0.587,0.558,�k��,1.9,��
2023/01/07,19:20,0.572,0.827,0.517,1.060,0.730,0.324,0.586,0.558,���k��,1.7,��
2023/01/07,19:30,0.571,0.825,0.517,1.057,0.730,0.327,0.587,0.558,��,1.9,��
2023/01/07,19:40,0.571,0.825,0.518,1.057,0.729,0.325,0.586,0.557,��,2.3,��
2023/01/07,19:50,0.571,0.826,0.518,1.057,0.730,0.325,0.589,0.557,���쐼,2.2,��
2023/01/07,20:00,0.572,0.825,0.517,1.059,0.731,0.327,0.587,0.556,���쐼,2.5,��
2023/01/07,20:10,0.570,0.826,0.516,1.058,0.729,0.326,0.585,0.557,�쐼,2.5,��
2023/01/07,20:20,0.572,0.824,0.517,1.058,0.729,0.326,0.586,0.558,��쐼,2.5,��
2023/01/07,20:30,0.572,0.825,0.517,1.058,0.730,0.325,0.588,0.557,�쐼,2.7,��
2023/01/07,20:40,0.571,0.825,0.517,1.058,0.730,0.325,0.587,0.557,�쐼,3.2,��
2023/01/07,20:50,0.571,0.825,0.517,1.060,0.730,0.326,0.587,0.558,���쐼,2.8,��
2023/01/07,21:00,0.571,0.825,0.517,1.058,0.729,0.325,0.587,0.558,���쐼,2.9,��
2023/01/07,21:10,0.572,0.824,0.518,1.057,0.731,0.325,0.588,0.559,���쐼,2.4,��
2023/01/07,21:20,0.569,0.826,0.518,1.060,0.730,0.325,0.586,0.558,���쐼,2.5,��
2023/01/07,21:30,0.571,0.826,0.518,1.059,0.728,0.325,0.587,0.557,���쐼,2.8,��
2023/01/07,21:40,0.569,0.825,0.517,1.060,0.727,0.325,0.586,0.557,��,3.1,��
2023/01/07,21:50,0.572,0.828,0.518,1.058,0.728,0.325,0.587,0.557,��,3.5,��
2023/01/07,22:00,0.571,0.824,0.518,1.060,0.731,0.326,0.587,0.557,��,4.1,��
2023/01/07,22:10,0.572,0.826,0.517,1.061,0.730,0.325,0.588,0.557,���k��,4.2,��
2023/01/07,22:20,0.570,0.825,0.518,1.058,0.728,0.325,0.588,0.559,���k��,4.5,��
2023/01/07,22:30,0.569,0.825,0.517,1.060,0.729,0.326,0.588,0.559,�k��,4.9,��
2023/01/07,22:40,0.570,0.825,0.518,1.058,0.728,0.326,0.589,0.557,�k��,5.0,��
2023/01/07,22:50,0.571,0.825,0.518,1.059,0.730,0.324,0.587,0.559,�k��,4.9,��
2023/01/07,23:00,0.571,0.826,0.517,1.060,0.729,0.325,0.588,0.557,�k��,5.6,��
2023/01/07,23:10,0.572,0.826,0.518,1.058,0.731,0.326,0.586,0.558,�k��,5.2,��
2023/01/07,23:20,0.570,0.827,0.518,1.060,0.729,0.325,0.586,0.557,�k��,5.0,��
2023/01/07,23:30,0.571,0.825,0.519,1.057,0.728,0.325,0.589,0.557,�k��,4.7,��
2023/01/07,23:40,0.570,0.825,0.520,1.059,0.728,0.325,0.587,0.558,�k��,5.0,��
2023/01/07,23:50,0.570,0.826,0.516,1.058,0.729,0.326,0.586,0.557,�k�k��,5.2,��
